📊 Raw Sensor Data

Showing records 47876 to 47900 of 85,092 total

ID Distance (ft) Battery V Battery A Int Temp (°F) Int Humid (%) Ext Temp (°F) Solar V RSSI SNR Time Stamp
37229 -- 4.04 0 58 38 61 5.10 -77 9 04/08/2025 09:15 AM
37228 -- 3.83 0 56 39 60 5.10 -79 8 04/08/2025 09:00 AM
37227 -- 3.83 0 55 39 61 5.10 -79 9 04/08/2025 08:46 AM
37226 -- 3.83 0 53 39 61 5.10 -78 9 04/08/2025 08:30 AM
37225 -- 3.83 0 52 39 59 5.10 -79 8 04/08/2025 08:15 AM
37224 -- 4.01 0 51 39 57 5.10 -78 8 04/08/2025 08:00 AM
37223 -- 4.16 28 50 39 54 4.50 -77 8 04/08/2025 07:45 AM
37222 -- 3.90 7 49 39 53 4.50 -79 9 04/08/2025 07:30 AM
37221 -- 3.82 14 48 39 51 4.50 -78 7 04/08/2025 07:15 AM
37220 -- 3.75 0 47 40 49 4.50 -79 9 04/08/2025 07:00 AM
37219 -- 3.71 -10 46 40 48 4.20 -79 8 04/08/2025 06:46 AM
37218 -- 3.84 -5 46 40 48 1.40 -79 8 04/08/2025 06:30 AM
37217 -- 3.57 -5 45 40 47 0.00 -80 8 04/08/2025 06:15 AM
37216 -- 3.84 -5 45 40 46 0.00 -78 7 04/08/2025 06:00 AM
37215 -- 3.73 -5 46 40 47 0.00 -78 8 04/08/2025 05:45 AM
37214 -- 3.84 -5 46 40 47 0.00 -78 8 04/08/2025 05:30 AM
37213 -- 3.71 -5 46 40 47 0.00 -80 8 04/08/2025 05:15 AM
37212 15.4 3.76 -29 46 40 47 0.00 -79 8 04/08/2025 05:00 AM
37211 15.4 3.71 -5 45 40 47 0.10 -79 8 04/08/2025 04:45 AM
37210 15.4 3.84 -5 45 40 46 0.00 -77 8 04/08/2025 04:30 AM
37209 15.3 3.70 -5 45 41 46 0.00 -78 8 04/08/2025 04:15 AM
37208 15.4 3.70 -5 45 40 46 0.10 -78 7 04/08/2025 04:00 AM
37207 15.4 3.70 -5 46 40 47 0.00 -77 8 04/08/2025 03:45 AM
37206 15.3 3.69 -5 45 41 47 0.00 -78 8 04/08/2025 03:30 AM
37205 15.4 3.67 -5 44 41 45 0.00 -78 8 04/08/2025 03:15 AM